Погода в Поперечном

Россия / Республика Бурятия     52°23′04″N   110°42′43″E
темп.,
°C
ветер,
м/с
пор.,
м/с
влажн.,
%
обл.,
%
осадки,
мм/ч
давл.,
гПа
погр.,
м
12 апреля, пн
пн1223:00−11ссз245629 0.0 103480
02:00−11ссз235899 0.0 103572
05:00−13сз226724 0.0 103522
08:00−9з23460 0.0 1034414
11:00−3зсз46250 0.0 10291622
14:000сз572573 0.0 10252245
17:00−1сз673299 0.0 10241800
20:00−6сз48559 0.0 1026337
13 апреля, вт
вт1323:00−9ссз22700 0.0 102833
02:00−10ссз22750 0.0 102816
05:00−11сз11810 0.0 102710
08:00−6зюз23615 0.0 1024324
11:000зюз463958 0.0 10191411
14:00+5з573080 0.0 10131962
17:00+5зсз6829100 0.0 10111892
20:00+1з4952100 0.0 1012446
14 апреля, ср
ср1423:00−2з2773100 0.0 1012144
02:00−2з41078100 0.0 1012639
05:00−5з398561 0.0 1013311
08:00−2зсз6957100 0.0 1014859
11:00+1сз6634100 0.0 10121401
14:00+3сз7728100 0.0 10112156
17:00+1сз6730100 0.0 10112100
20:00−2сз51151100 0.0 1013888
15 апреля, чт
чт1523:00−4сз51258100 0.0 1013703
02:00−7з24785 0.0 101385
05:00−8з26865 0.0 1013196
08:00−4зсз59515 0.0 1011878
11:000сз6728100 0.0 10092652
14:00+1сз6825100 0.0 10083250
17:00+2ссз682299 0.0 10082957
20:00−3ссз510515 0.0 1012438
16 апреля, пт
пт1623:00−7ссз34743 0.0 101564
02:00−8сз34824 0.0 101764
05:00−9сз23895 0.0 101956
08:00−3зсз36515 0.0 1018571
11:00+2з45285 0.0 10151750
14:00+5з572384 0.0 10121987
17:00+6зсз57285 0.0 10101659
20:00+1з385450 0.0 1012213